Weather History for Angel Fire, NM

Change the Weather History Date:

Sunday, November 11, 2012

  Actual Average (KSKX) Record (KSKX)
Temperature  
Mean Temperature 20 °F -  
Max Temperature 26 °F 49 °F 69 °F (1999)
Min Temperature 14 °F 21 °F 12 °F (1998)
Degree Days  
Heating Degree Days 44    
Moisture  
Dew Point 4 °F    
Average Humidity 52    
Maximum Humidity 71    
Minimum Humidity 16    
Precipitation  
Precipitation 0.00 in - - ()
Sea Level Pressure  
Sea Level Pressure 30.00 in    
Wind  
Wind Speed 12 mph (WSW)    
Max Wind Speed 25 mph    
Max Gust Speed 38 mph    
Visibility 8 miles    
Events Snow    
Averages and records for this station are not official NWS values.
T = Trace of Precipitation, MM = Missing Value Source: NWS Daily Summary

Daily Weather History Graph

Daily Weather History Graph

Search for Another Location

Airport:

Trip Planner

Search our weather history database for the weather conditions in past years. The results will help you decide how hot, cold, wet, or windy it might be!

Date:

Astronomy

Nov. 11, 2012 Rise Set
Actual Time 6:34 AM MST 4:55 PM MST
Civil Twilight 6:07 AM MST 5:22 PM MST
Nautical Twilight 5:36 AM MST 5:53 PM MST
Astronomical Twilight 5:06 AM MST 6:23 PM MST
Moon 3:55 AM MST (11/11) 3:17 PM MST (11/11)
Length of Visible Light 11h 14m
Length of Day
10h 20m
Waning Crescent, 7% of the Moon is Illuminated
Nov 11
Waning Crescent
Nov 13
New
Nov 20
First Quarter
Nov 28
Full
Dec 6
Last Quarter

Hourly Weather History & Observations

Time (MST) Temp. Windchill Dew Point Humidity Pressure Visibility Wind Dir Wind Speed Gust Speed Precip Events Conditions
12:15 AM 21.7 °F 11.5 °F 10.2 °F 61% 29.82 in 7.0 mi West 9.2 mph - N/A   Overcast
12:35 AM 21.2 °F 13.6 °F 10.4 °F 63% 29.82 in 10.0 mi West 5.8 mph - N/A   Overcast
12:55 AM 21.0 °F 9.9 °F 12.0 °F 68% 29.82 in 5.0 mi West 10.4 mph - N/A Snow Light Snow
1:15 AM 20.7 °F 11.0 °F 12.2 °F 70% 29.82 in 4.0 mi West 8.1 mph - N/A Snow Light Snow
1:35 AM 19.9 °F 12.1 °F 11.5 °F 70% 29.82 in 10.0 mi WSW 5.8 mph - N/A Snow Light Snow
1:55 AM 20.1 °F 10.3 °F 11.3 °F 69% 29.82 in 10.0 mi West 8.1 mph - N/A Snow Light Snow
2:15 AM 20.1 °F 13.6 °F 12.0 °F 71% 29.82 in 10.0 mi WSW 4.6 mph - N/A Snow Light Snow
2:35 AM 20.3 °F 15.4 °F 12.2 °F 71% 29.83 in 5.0 mi SSW 3.5 mph - N/A Snow Light Snow
2:55 AM 20.8 °F 12.1 °F 11.1 °F 66% 29.82 in 10.0 mi West 6.9 mph - N/A Snow Light Snow
3:15 AM 20.7 °F 10.2 °F 10.2 °F 64% 29.82 in 10.0 mi WSW 9.2 mph 17.3 mph N/A Snow Light Snow
3:35 AM 20.5 °F 10.0 °F 9.0 °F 61% 29.83 in 10.0 mi WSW 9.2 mph 25.3 mph N/A   Overcast
3:55 AM 20.3 °F 7.2 °F 9.5 °F 63% 29.83 in 10.0 mi West 13.8 mph 21.9 mph N/A   Overcast
4:35 AM 20.3 °F 9.0 °F 8.6 °F 61% 29.84 in 10.0 mi WSW 10.4 mph - N/A   Overcast
4:55 AM 20.1 °F 8.1 °F 9.3 °F 63% 29.85 in 10.0 mi West 11.5 mph - N/A   Overcast
5:15 AM 20.3 °F 7.7 °F 9.1 °F 62% 29.86 in 10.0 mi West 12.7 mph - N/A   Overcast
6:35 AM 19.0 °F 5.0 °F 9.7 °F 67% 29.88 in 7.0 mi WSW 15.0 mph 19.6 mph N/A Snow Light Snow
6:55 AM 18.9 °F 4.3 °F 7.5 °F 61% 29.89 in 5.0 mi West 16.1 mph 25.3 mph N/A Snow Light Snow
7:15 AM 18.5 °F 4.9 °F 7.3 °F 62% 29.90 in 10.0 mi West 13.8 mph 26.5 mph N/A   Overcast
7:55 AM 18.7 °F 1.9 °F 7.5 °F 62% 29.91 in 10.0 mi West 21.9 mph 27.6 mph N/A   Overcast
8:15 AM 18.0 °F 2.2 °F 8.4 °F 66% 29.91 in 1.0 mi WSW 18.4 mph 31.1 mph N/A Snow Light Snow
8:35 AM 18.5 °F 3.8 °F 7.3 °F 62% 29.92 in 4.0 mi WSW 16.1 mph 23.0 mph N/A Snow Light Snow
8:55 AM 18.9 °F 8.8 °F 7.7 °F 62% 29.93 in 4.0 mi West 8.1 mph - N/A Snow Light Snow
9:15 AM 18.9 °F 6.5 °F 8.2 °F 63% 29.93 in 2.0 mi WSW 11.5 mph 17.3 mph N/A Snow Light Snow
9:35 AM 19.4 °F 7.9 °F 8.6 °F 63% 29.94 in 2.5 mi West 10.4 mph 23.0 mph N/A Snow Light Snow
10:15 AM 20.1 °F 8.1 °F 10.0 °F 65% 29.96 in 1.8 mi WSW 11.5 mph 17.3 mph N/A Snow Light Snow
10:35 AM 21.2 °F 7.3 °F 8.6 °F 58% 29.96 in 4.0 mi West 16.1 mph 23.0 mph N/A   Haze
10:55 AM 20.8 °F 7.3 °F 10.2 °F 64% 29.97 in 1.2 mi West 15.0 mph 26.5 mph N/A Snow Light Snow
11:15 AM 19.4 °F 12.8 °F 11.3 °F 71% 29.96 in 1.2 mi West 4.6 mph - N/A Snow Light Snow
11:35 AM 20.3 °F 9.0 °F 8.8 °F 61% 29.96 in 1.8 mi West 10.4 mph 20.7 mph N/A Snow Light Snow
11:55 AM 22.6 °F 9.2 °F 3.6 °F 44% 29.96 in 10.0 mi West 16.1 mph 24.2 mph N/A   Overcast
12:15 PM 22.5 °F 9.4 °F 4.3 °F 46% 29.96 in 7.0 mi WSW 15.0 mph 19.6 mph N/A   Overcast
12:35 PM 22.5 °F 11.7 °F 1.4 °F 40% 29.95 in 7.0 mi West 10.4 mph 16.1 mph N/A   Overcast
1:15 PM 26.8 °F 14.1 °F -13.9 °F 16% 29.96 in 10.0 mi West 17.3 mph 28.8 mph N/A   Overcast
1:35 PM 23.0 °F 7.6 °F -3.1 °F 32% 29.97 in 1.0 mi West 21.9 mph 35.7 mph N/A Snow Light Snow
1:55 PM 23.9 °F 8.1 °F -9.0 °F 23% 29.98 in 10.0 mi West 24.2 mph 32.2 mph N/A   Mostly Cloudy
2:15 PM 24.3 °F 8.6 °F 0.1 °F 35% 29.99 in 5.0 mi WSW 24.2 mph 33.4 mph N/A   Haze
2:35 PM 23.0 °F 7.2 °F 0.9 °F 38% 30.00 in 2.0 mi West 23.0 mph 35.7 mph N/A   Haze
2:55 PM 22.3 °F 7.0 °F 3.4 °F 44% 30.02 in 1.5 mi West 20.7 mph 36.8 mph N/A   Haze
3:15 PM 22.8 °F 9.9 °F 0.3 °F 38% 30.04 in 10.0 mi West 15.0 mph 20.7 mph N/A   Overcast
3:35 PM 22.5 °F 9.9 °F -0.2 °F 37% 30.03 in 7.0 mi West 13.8 mph 35.7 mph N/A   Overcast
3:55 PM 22.8 °F 10.4 °F -2.0 °F 34% 30.05 in 10.0 mi West 13.8 mph 33.4 mph N/A   Overcast
4:15 PM 22.6 °F 9.6 °F -1.1 °F 36% 30.07 in 10.0 mi WNW 15.0 mph 25.3 mph N/A   Overcast
4:35 PM 22.1 °F 6.4 °F 0.1 °F 38% 30.07 in 10.0 mi West 21.9 mph 26.5 mph N/A   Overcast
4:55 PM 20.7 °F 4.1 °F 1.0 °F 43% 30.08 in 4.0 mi West 23.0 mph 38.0 mph N/A   Haze
5:15 PM 19.9 °F 4.8 °F 0.3 °F 42% 30.10 in 10.0 mi West 18.4 mph 28.8 mph N/A   Scattered Clouds
5:35 PM 19.9 °F 4.3 °F -0.2 °F 41% 30.10 in 10.0 mi West 19.6 mph 27.6 mph N/A   Mostly Cloudy
5:55 PM 19.2 °F 1.5 °F 0.9 °F 45% 30.10 in 10.0 mi West 25.3 mph 31.1 mph N/A   Scattered Clouds
6:15 PM 18.9 °F 2.1 °F 0.9 °F 46% 30.10 in 10.0 mi West 21.9 mph 29.9 mph N/A   Clear
6:35 PM 18.5 °F 1.3 °F 1.2 °F 47% 30.12 in 10.0 mi West 23.0 mph 29.9 mph N/A   Clear
6:55 PM 18.5 °F 4.9 °F 0.5 °F 45% 30.14 in 10.0 mi West 13.8 mph 25.3 mph N/A   Scattered Clouds
7:15 PM 18.3 °F 4.1 °F 0.7 °F 46% 30.15 in 10.0 mi West 15.0 mph 23.0 mph N/A   Scattered Clouds
7:35 PM 18.3 °F 5.2 °F -0.4 °F 44% 30.16 in 10.0 mi West 12.7 mph 23.0 mph N/A   Clear
7:55 PM 17.6 °F 10.7 °F -0.6 °F 45% 30.18 in 10.0 mi SW 4.6 mph - N/A   Clear
8:15 PM 16.9 °F - -0.8 °F 46% 30.19 in 10.0 mi Calm Calm - N/A   Clear
8:35 PM 17.4 °F 10.4 °F -0.4 °F 46% 30.20 in 10.0 mi West 4.6 mph - N/A   Clear
8:55 PM 16.9 °F 5.5 °F -0.4 °F 47% 30.20 in 10.0 mi WSW 9.2 mph - N/A   Clear
9:15 PM 17.1 °F 8.7 °F -0.6 °F 46% 30.21 in 10.0 mi SW 5.8 mph 16.1 mph N/A   Clear
9:35 PM 16.3 °F 6.7 °F -0.0 °F 49% 30.22 in 10.0 mi South 6.9 mph - N/A   Clear
9:55 PM 16.3 °F 4.1 °F -0.0 °F 49% 30.22 in 10.0 mi South 10.4 mph - N/A   Clear
10:15 PM 15.6 °F 2.5 °F 0.1 °F 51% 30.23 in 10.0 mi SSW 11.5 mph 20.7 mph N/A   Clear
10:35 PM 15.4 °F 0.4 °F -0.2 °F 50% 30.24 in 10.0 mi SW 15.0 mph 18.4 mph N/A   Clear
10:55 PM 15.4 °F -0.1 °F -0.4 °F 50% 30.24 in 10.0 mi SSW 16.1 mph 20.7 mph N/A   Clear
11:15 PM 15.6 °F 3.2 °F -1.1 °F 48% 30.25 in 10.0 mi SW 10.4 mph 23.0 mph N/A   Clear
11:55 PM 14.5 °F 1.9 °F -1.3 °F 50% 30.26 in 10.0 mi West 10.4 mph 24.2 mph N/A   Clear